SP4FDH-13 Weather Reports


time (UTC)temp
C
wind
direction
speed
KPH
gust
KPH
rain 1hr
cm
rain 24hr
cm
rain mn
cm
humidity
%
barometer
mb
20260503071908 27 0.0 0.0 0.00 0.00 0.00 33 1014.5
20260503070930 26 0.0 0.0 0.00 0.00 0.00 36 1014.6
20260503060208 22 0.0 0.0 0.00 0.00 0.00 41 1014.7
20260503054252 21 0.0 0.0 0.00 0.00 0.00 43 1014.8
20260503053315 20 0.0 0.0 0.00 0.00 0.00 44 1014.8
20260503052338 20 0.0 0.0 0.00 0.00 0.00 45 1015.1
20260503051401 20 0.0 0.0 0.00 0.00 0.00 45 1014.9
20260503050423 20 0.0 0.0 0.00 0.00 0.00 46 1014.9
20260503045446 19 0.0 0.0 0.00 0.00 0.00 48 1014.9
20260503043531 17 0.0 0.0 0.00 0.00 0.00 57 1015.2
20260503042553 16 0.0 0.0 0.00 0.00 0.00 63 1015.3
20260503041616 15 0.0 0.0 0.00 0.00 0.00 66 1015.2
20260503040639 14 0.0 0.0 0.00 0.00 0.00 70 1015.4
20260503035702 13 0.0 0.0 0.00 0.00 0.00 73 1015.3
20260503034727 13 0.0 0.0 0.00 0.00 0.00 72 1015.3
20260503033751 13 0.0 0.0 0.00 0.00 0.00 72 1015.3
20260503032815 13 0.0 0.0 0.00 0.00 0.00 70 1015.3
20260503031840 13 0.0 0.0 0.00 0.00 0.00 67 1015.3
20260503030905 15 0.0 0.0 0.00 0.00 0.00 62 1015.1
20260503025928 15 0.0 0.0 0.00 0.00 0.00 60 1014.9
20260503024951 14 0.0 0.0 0.00 0.00 0.00 65 1015.1
20260503024015 13 0.0 0.0 0.00 0.00 0.00 70 1015.3
20260503023039 13 0.0 0.0 0.00 0.00 0.00 69 1015.3
20260503022103 14 0.0 0.0 0.00 0.00 0.00 65 1015.3
20260503021128 14 0.0 0.0 0.00 0.00 0.00 63 1015.4
20260503020152 15 0.0 0.0 0.00 0.00 0.00 61 1015.3
20260503015218 15 0.0 0.0 0.00 0.00 0.00 56 1015.3
20260503014242 16 0.0 0.0 0.00 0.00 0.00 53 1015.3
20260503013306 16 0.0 0.0 0.00 0.00 0.00 52 1015.3
20260503012330 16 0.0 0.0 0.00 0.00 0.00 52 1015.2
20260503011354 16 0.0 0.0 0.00 0.00 0.00 53 1015.3
20260503010418 17 0.0 0.0 0.00 0.00 0.00 52 1015.2
20260503005442 16 0.0 0.0 0.00 0.00 0.00 52 1015.3
20260503004506 16 0.0 0.0 0.00 0.00 0.00 52 1015.2
20260503003530 17 0.0 0.0 0.00 0.00 0.00 51 1015.2
20260503002554 17 0.0 0.0 0.00 0.00 0.00 50 1015.3
20260503001617 17 0.0 0.0 0.00 0.00 0.00 50 1015.4
20260503000640 17 0.0 0.0 0.00 0.00 0.00 53 1015.4
20260502235702 15 0.0 0.0 0.00 0.00 0.00 58 1015.5
20260502234725 15 0.0 0.0 0.00 0.00 0.00 62 1015.6
20260502233748 13 0.0 0.0 0.00 0.00 0.00 70 1015.8
20260502232812 13 0.0 0.0 0.00 0.00 0.00 75 1015.9
20260502231836 13 0.0 0.0 0.00 0.00 0.00 69 1015.9
20260502230900 13 0.0 0.0 0.00 0.00 0.00 71 1015.9
20260502225924 12 0.0 0.0 0.00 0.00 0.00 75 1016.0
20260502224948 12 0.0 0.0 0.00 0.00 0.00 79 1016.0
20260502224012 12 0.0 0.0 0.00 0.00 0.00 78 1016.1
20260502223036 12 0.0 0.0 0.00 0.00 0.00 79 1016.1
20260502222100 12 0.0 0.0 0.00 0.00 0.00 84 1016.2
20260502221125 12 0.0 0.0 0.00 0.00 0.00 81 1016.2
20260502220149 12 0.0 0.0 0.00 0.00 0.00 80 1016.2
20260502215214 12 0.0 0.0 0.00 0.00 0.00 73 1016.1
20260502214239 12 0.0 0.0 0.00 0.00 0.00 70 1016.1
20260502213303 13 0.0 0.0 0.00 0.00 0.00 68 1016.3
20260502212328 13 0.0 0.0 0.00 0.00 0.00 69 1016.2
20260502211352 13 0.0 0.0 0.00 0.00 0.00 68 1016.2
20260502210417 13 0.0 0.0 0.00 0.00 0.00 66 1016.3
20260502205441 13 0.0 0.0 0.00 0.00 0.00 64 1016.2
20260502204505 13 0.0 0.0 0.00 0.00 0.00 66 1016.3
20260502203530 14 0.0 0.0 0.00 0.00 0.00 69 1016.4
20260502202555 14 0.0 0.0 0.00 0.00 0.00 65 1016.2
20260502201620 14 0.0 0.0 0.00 0.00 0.00 64 1016.1
20260502200645 15 0.0 0.0 0.00 0.00 0.00 59 1016.2
20260502195710 15 0.0 0.0 0.00 0.00 0.00 59 1016.2
20260502194735 15 0.0 0.0 0.00 0.00 0.00 55 1016.1
20260502193800 16 0.0 0.0 0.00 0.00 0.00 54 1016.0
20260502192825 16 0.0 0.0 0.00 0.00 0.00 54 1016.1
20260502191850 17 0.0 0.0 0.00 0.00 0.00 55 1016.1
20260502190915 17 0.0 0.0 0.00 0.00 0.00 54 1016.1
20260502185940 17 0.0 0.0 0.00 0.00 0.00 50 1015.9
20260502185005 17 0.0 0.0 0.00 0.00 0.00 55 1016.0
20260502184032 18 0.0 0.0 0.00 0.00 0.00 51 1016.0
20260502183057 19 0.0 0.0 0.00 0.00 0.00 46 1015.8
20260502182123 20 0.0 0.0 0.00 0.00 0.00 43 1015.8
20260502181149 21 0.0 0.0 0.00 0.00 0.00 40 1015.6
20260502180214 22 0.0 0.0 0.00 0.00 0.00 37 1015.3
20260502170443 24 0.0 0.0 0.00 0.00 0.00 26 1014.6
20260502163559 25 0.0 0.0 0.00 0.00 0.00 26 1014.9
20260502162624 25 0.0 0.0 0.00 0.00 0.00 25 1014.9
20260502161649 25 0.0 0.0 0.00 0.00 0.00 24 1014.9
20260502160714 25 0.0 0.0 0.00 0.00 0.00 24 1015.1
20260502151917 26 0.0 0.0 0.00 0.00 0.00 22 1015.6
20260502150942 27 0.0 0.0 0.00 0.00 0.00 21 1015.5
20260502130508 30 0.0 0.0 0.00 0.00 0.00 19 1016.8
20260502123623 31 0.0 0.0 0.00 0.00 0.00 17 1017.0
20260502122646 31 0.0 0.0 0.00 0.00 0.00 18 1017.2
20260502121710 31 0.0 0.0 0.00 0.00 0.00 18 1017.4
20260502120735 31 0.0 0.0 0.00 0.00 0.00 18 1017.4
20260502115758 31 0.0 0.0 0.00 0.00 0.00 19 1017.8
20260502114821 31 0.0 0.0 0.00 0.00 0.00 19 1017.8
20260502113844 31 0.0 0.0 0.00 0.00 0.00 19 1017.9
20260502112908 30 0.0 0.0 0.00 0.00 0.00 19 1017.9
20260502111931 30 0.0 0.0 0.00 0.00 0.00 20 1018.2
20260502110954 30 0.0 0.0 0.00 0.00 0.00 20 1018.1
20260502110017 30 0.0 0.0 0.00 0.00 0.00 19 1018.1
20260502105041 30 0.0 0.0 0.00 0.00 0.00 20 1018.2
20260502104104 30 0.0 0.0 0.00 0.00 0.00 23 1018.6
20260502103128 30 0.0 0.0 0.00 0.00 0.00 23 1018.5
20260502102151 30 0.0 0.0 0.00 0.00 0.00 22 1018.6
20260502101215 29 0.0 0.0 0.00 0.00 0.00 23 1018.8
20260502100238 30 0.0 0.0 0.00 0.00 0.00 24 1018.9
20260502091437 29 0.0 0.0 0.00 0.00 0.00 27 1019.4
20260502090502 28 0.0 0.0 0.00 0.00 0.00 29 1019.6